This demonstration page uses our WeatherBlox Daily Observations layout. Learn more.

Hourly Observations for February 9, 2019

Temp ( °F °C ) Dew Point ( °F °C ) Humidity (%) Winds ( mph kmh ) Pressure ( in mb ) Visibility ( mi km ) Precip ( " mm )
12:54 am 00:54 Clear 10 -12.2 1 -17.2 67 67 ESE 9 15 30.73 1041 10 16.0934 0 0
1:54 am 01:54 Clear 11 -11.7 2 -16.7 67 67 SE 7 11 30.72 1040 10 16.0934 0 0
2:54 am 02:54 Clear 12 -11.1 2 -16.7 64 64 ESE 12 19 30.7 1040 10 16.0934 0 0
3:54 am 03:54 Clear 11 -11.7 2 -16.7 67 67 SE 13 20 30.69 1039 10 16.0934 0 0
4:54 am 04:54 Clear 11 -11.7 2 -16.7 67 67 SE 14 22 30.67 1039 10 16.0934 0 0
5:54 am 05:54 Mostly Cloudy 12 -11.1 4 -15.6 70 70 SE 12 19 30.67 1039 10 16.0934 0 0
6:54 am 06:54 Cloudy 14 -10 6 -14.4 71 71 SE 14 22 30.65 1038 10 16.0934 0 0
7:54 am 07:54 Sunny 14 -10 6 -14.4 71 71 SE 14 22 30.65 1038 10 16.0934 0 0
8:54 am 08:54 Partly Cloudy 16 -8.9 7 -13.9 67 67 SE 20 31 30.64 1038 10 16.0934 0 0
10:54 am 10:54 Sunny 23 -5 10 -12.2 57 57 SSE 22 35 30.59 1036 10 16.0934 0 0
11:54 am 11:54 Sunny 26 -3.3 12 -11.1 55 55 SSE 22 35 30.56 1035 10 16.0934 0 0
12:54 pm 12:54 Sunny 31 -0.6 13 -10.6 47 47 SSE 24 39 30.49 1033 10 16.0934 0 0
1:54 pm 13:54 Sunny 33 0.6 14 -10 45 45 SSE 18 30 30.46 1031 10 16.0934 0 0
2:54 pm 14:54 Sunny 33 0.6 13 -10.6 43 43 SSE 23 37 30.41 1030 10 16.0934 0 0
3:54 pm 15:54 Sunny 35 1.7 15 -9.4 44 44 SSE 15 24 30.41 1030 10 16.0934 0 0
4:54 pm 16:54 Partly Cloudy 32 0 15 -9.4 50 50 SE 12 19 30.41 1030 10 16.0934 0 0
5:54 pm 17:54 Clear 30 -1.1 15 -9.4 54 54 SE 13 20 30.41 1030 10 16.0934 0 0
6:54 pm 18:54 Cloudy 30 -1.1 16 -8.9 56 56 ESE 9 15 30.4 1029 10 16.0934 0 0
7:54 pm 19:54 Cloudy 30 -1.1 16 -8.9 56 56 SE 13 20 30.4 1029 10 16.0934 0 0
8:54 pm 20:54 Cloudy 29 -1.7 17 -8.3 61 61 SE 15 24 30.37 1029 10 16.0934 0 0
9:54 pm 21:54 Cloudy 28 -2.2 17 -8.3 63 63 SE 14 22 30.35 1028 10 16.0934 0 0
10:54 pm 22:54 Cloudy 29 -1.7 18 -7.8 63 63 SE 10 17 30.35 1028 10 16.0934 0 0
11:54 pm 23:54 Cloudy 28 -2.2 19 -7.2 69 69 SE 10 17 30.32 1027 10 16.0934 0 0

Powered by AerisWeather